Location: Canazei
(46.4667°N, 11.7667°E)
Time: 06:53:59
(UTC+00:00)

Cosmos 1937 Rocket - Pass Details

Date: 21 April 2021
Orbit: 746 x 780 km, 74.0° (Epoch: 15 May)

Event Time Altitude Azimuth Distance (km) Brightness Sun altitude
Exits shadow 01:25:29 39° 143° (SE) 1,121 4.2 -24.4°
Maximum altitude 01:26:43 46° 105° (ESE) 994 4.1 -24.3°
Drops below altitude 10° 01:31:38 10° 33° (NNE) 2,273 7.0 -23.8°
Sets 01:34:04 0° 27° (NNE) 3,203 8.1 -23.5°
